Location: Eaton Estates
(41.3089°N, 82.0057°W)
Time: 16:48:03
(UTC+00:00)

NOSS 2-2 (E) - Pass Details

Date: 17 June 2021
Orbit: 448 x 1757 km, 63.3° (Epoch: 30 July)

Event Time Altitude Azimuth Distance (km) Brightness Sun altitude
Exits shadow 07:55:58 40° 243° (WSW) 671 3.3 -16.9°
Maximum altitude 07:56:58 63° 307° (NW) 509 3.1 -16.8°
Drops below altitude 10° 08:00:32 10° 30° (NNE) 1,685 7.1 -16.4°
Sets 08:02:51 0° 33° (NNE) 2,676 8.7 -16.1°
